Regional Weather Roundup
Issued by NWS

Home | Current Version | Previous Version | Graphics & Text | Print | Product List | Glossary On
Versions: 1 2 3 4 5 6 7 8 9 10 11 12 13 14 15 16 17 18 19 20 21 22 23 24 25 26 27 28 29 30 31 32 33 34 35 36 37 38 39 40 41 42 43 44 45 46 47 48 49 50
000
ASUS43 KFSD 050210
RWRSD

WEATHER ROUNDUP FOR SOUTH DAKOTA
NATIONAL WEATHER SERVICE SIOUX FALLS SD
900 PM CDT FRI SEP 04 2015

NOTE: "FAIR" INDICATES FEW OR NO CLOUDS BELOW 12,000 FEET WITH NO
SIGNIFICANT WEATHER AND/OR OBSTRUCTIONS TO VISIBILITY.


SDZ001>005-009-010-012>017-050300-
NORTHWEST AND NORTH CENTRAL SOUTH DAKOTA

CITY           SKY/WX    TMP DP  RH WIND       PRES   REMARKS
BUFFALO          N/A     74  64  71 N14       29.76S
FAITH            N/A     78  55  44 E12       29.80
MOBRIDGE       CLEAR     79  73  82 E9        29.77R
$$

SDZ012>016-024>037-041>051-057-063-072>074-050300-
SOUTHWEST AND SOUTH CENTRAL SOUTH DAKOTA

CITY           SKY/WX    TMP DP  RH WIND       PRES   REMARKS
RAPID CTY ARPT MOCLDY    75  60  59 N3        29.80R
PIERRE         MOCLDY    80  67  64 E5        29.75R
CUSTER         MOCLDY    75  41  29 S5        29.98R
PHILIP         MOCLDY    78  65  63 E6        29.77R
PINE RIDGE     PTCLDY    74  52  46 E8        29.82S
WINNER         FAIR      83  63  50 SE8       29.77R
$$

SDZ004>011-016>023-039-040-050300-
NORTHEAST SOUTH DAKOTA

CITY           SKY/WX    TMP DP  RH WIND       PRES   REMARKS
ABERDEEN       CLEAR     75  69  81 E7        29.80R
WATERTOWN      PTCLDY    76  68  76 S12       29.85S
BROOKINGS      MOCLDY    75  70  83 SE15      29.89R
SISSETON         N/A     75  69  81 S6        29.82R
$$

SDZ017-020-022-023-036>040-048>070-050300-
SOUTHEAST SOUTH DAKOTA

CITY           SKY/WX    TMP DP  RH WIND       PRES   REMARKS
SIOUX FALLS    PTCLDY    78  71  79 SE14      29.85R
HURON          MOCLDY    79  72  79 SE12      29.77S
CHAMBERLAIN    MOCLDY    78  70  77 SE7       29.76S
MITCHELL       CLOUDY    80  74  81 SE12      29.79R
YANKTON        CLEAR     81  72  74 SE12      29.81R
$$

ABBREVIATIONS USED IN REMARKS
   TC - TEMPERATURE IN CELSIUS
  WCI - WIND CHILL INDEX
   HX - HEAT INDEX
  VSB - VISIBILITY



USA.gov is the U.S. government's official web portal to all federal, state and local government web resources and services.